[Iaude] MPEC A159: 2024 AD4 [a=0.86,e=0.22,i=25.3,H=24.8]

mpec at marsden.cfa.harvard.edu mpec at marsden.cfa.harvard.edu
Sun Jan 14 08:32:44 EST 2024


M.P.E.C. 2024-A159                             Issued 2024 January 14, 13:31 UT

     The Minor Planet Electronic Circulars contain information on unusual
         minor planets, routine data on comets and natural satellites,
         and occasional editorial announcements.  They are published
    on behalf of Division F of the International Astronomical Union by the
          Minor Planet Center, Smithsonian Astrophysical Observatory,
                          Cambridge, MA 02138, U.S.A.
			  
             Prepared using the Tamkin Foundation Computer Network

                              MPC at CFA.HARVARD.EDU
            URL https://www.minorplanetcenter.net/    ISSN 1523-6714

                                    2024 AD4                                    


Observations:
     K24A04D* C2024 01 12.90295 07 15 44.68 +41 19 11.7          19.0 GVEA159K88
     K24A04D  C2024 01 12.90593 07 15 39.94 +41 18 06.8          18.8 GVEA159K88
     K24A04D  C2024 01 12.90891 07 15 35.19 +41 17 01.8          18.9 GVEA159K88
     K24A04D KC2024 01 12.93078 07 15 00.69 +41 09 05.0          18.9 GVEA159K88
     K24A04D KC2024 01 12.93219 07 14 58.42 +41 08 34.2          19.1 GVEA159K88
     K24A04D KC2024 01 12.93347 07 14 56.40 +41 08 06.3          19.0 GVEA159K88
     K24A04D KC2024 01 12.93810 07 14 50.88 +41 06 34.2          18.9 GXEA159K78
     K24A04D KC2024 01 12.93992 07 14 46.23 +41 05 44.9          19.1 GVEA159K88
     K24A04D KC2024 01 12.94121 07 14 44.21 +41 05 16.8          19.1 GVEA159K88
     K24A04D KC2024 01 12.94250 07 14 42.22 +41 04 48.7          19.3 GVEA159K88
     K24A04D KC2024 01 12.94278 07 14 43.46 +41 04 52.0          19.5 GXEA159K78
     K24A04D KC2024 01 12.94747 07 14 36.06 +41 03 09.2          19.3 GXEA159K78
     K24A04D KC2024 01 12.95171407 14 28.70 +41 01 33.3          19.4 VSEA159L01
     K24A04D KC2024 01 12.95319707 14 26.35 +41 01 00.7          19.5 VSEA159L01
     K24A04D KC2024 01 12.95467907 14 24.01 +41 00 28.3          19.4 VSEA159L01
     K24A04D KC2024 01 12.95603707 14 21.85 +40 59 58.8          19.5 VSEA159L01
     K24A04D KC2024 01 12.95739407 14 19.72 +40 59 28.8          19.4 VSEA159L01
     K24A04D  C2024 01 12.95878 07 14 18.98 +40 59 03.0          19.7 RXEA159511
     K24A04D  C2024 01 12.96585 07 14 07.84 +40 56 26.3          19.7 RXEA159511
     K24A04D  C2024 01 12.96742 07 14 05.36 +40 55 52.7          19.5 RXEA159511
     K24A04D  C2024 01 12.96850 07 14 03.65 +40 55 28.6          19.4 RXEA159511
     K24A04D  C2024 01 12.96957 07 14 01.98 +40 55 05.4          19.5 RXEA159511
     K24A04D  C2024 01 12.97605 07 13 51.77 +40 52 42.8          19.3 RXEA159511
     K24A04D  C2024 01 12.97713 07 13 50.07 +40 52 19.1          19.5 RXEA159511
     K24A04D KC2024 01 12.98051507 13 43.88 +40 51 03.4                VEA159104
     K24A04D KC2024 01 12.98321607 13 39.61 +40 50 04.3          19.3 GVEA159104
     K24A04D KC2024 01 12.98591607 13 35.37 +40 49 04.6          19.5 GVEA159104
     K24A04D KC2024 01 13.08021607 11 08.73 +40 13 45.8          19.5 RoEA159K88
     K24A04D KC2024 01 13.08533407 11 01.09 +40 11 50.5          19.6 RoEA159K88
     K24A04D  C2024 01 13.27219407 06 38.889+39 03 24.76         19.4 GVEA159654
     K24A04D  C2024 01 13.27413907 06 35.953+39 02 41.41         19.4 GVEA159654
     K24A04D  C2024 01 13.32035307 05 26.602+38 45 24.21         19.7 GVEA159654
     K24A04D  C2024 01 13.32235707 05 23.603+38 44 39.01         19.7 GVEA159654
     K24A04D KB2024 01 13.77340 06 55 13.67 +35 52 20.2          18.5 RZEA159106
     K24A04D KB2024 01 13.77722 06 55 08.51 +35 50 53.3          18.2 RZEA159106
     K24A04D KB2024 01 13.78090 06 55 03.54 +35 49 30.1                ZEA159106
     K24A04D KB2024 01 13.78171006 55 02.88 +35 49 06.3                VEA159204
     K24A04D KB2024 01 13.78442 06 54 58.77 +35 48 10.0          18.5 RZEA159106
     K24A04D KB2024 01 13.79064406 54 50.83 +35 45 44.0                VEA159204
     K24A04D KB2024 01 13.79539206 54 45.32 +35 43 50.5          19.2 GXEA159I93
     K24A04D KB2024 01 13.79938306 54 39.96 +35 42 20.4          19.5 GXEA159I93
     K24A04D KB2024 01 13.80089306 54 37.02 +35 41 51.5          19.4 GVEA159204
     K24A04D KB2024 01 13.80335806 54 34.65 +35 40 50.0          19.7 GXEA159I93
     K24A04D KC2024 01 13.81906506 54 12.21 +35 35 01.4          19.5 GVEA159K51
     K24A04D KC2024 01 13.82432806 54 05.11 +35 33 01.5          19.2 GVEA159K51
     K24A04D KC2024 01 13.82958006 53 58.00 +35 31 01.9          19.4 GVEA159K51
     K24A04D KB2024 01 13.83959206 53 46.21 +35 27 09.5          19.9 GXEA159958
     K24A04D KB2024 01 13.84291206 53 41.69 +35 25 53.5          19.3 GXEA159958
     K24A04D KB2024 01 13.84622906 53 37.36 +35 24 37.8          19.6 GXEA159958
     K24A04D KC2024 01 13.85295206 53 26.43 +35 22 08.8          19.5 GVEA159K51
     K24A04D KC2024 01 13.86347406 53 12.25 +35 18 08.2          19.7 GVEA159K51
     K24A04D KC2024 01 13.97063 06 50 47.77 +34 37 12.6          19.0 GVEA159C82
     K24A04D KC2024 01 13.97781 06 50 38.17 +34 34 25.4          18.6 GVEA159C82
     K24A04D KB2024 01 13.99015 06 50 22.58 +34 29 27.1          19.2 GVEA159130
     K24A04D KB2024 01 13.99716 06 50 13.32 +34 26 44.1          19.3 GVEA159130
     K24A04D KC2024 01 14.00015206 50 09.51 +34 25 34.5          18.9 GVEA159203
     K24A04D KC2024 01 14.00674906 50 00.78 +34 23 01.2          19.0 GVEA159203

Observer details:
104 San Marcello Pistoiese.  Observers P. Bacci, M. Maestripieri.  Measurers
    P. Bacci, L. Tesi, G. Fagioli.  0.60-m F4 Reflector + CCD.
106 Crni Vrh.  Observer H. Mikuz.  0.60-m f/3.3 reflector + CMO.
130 Lumezzane.  Observers A. Coffano, W. Marinello, M. Micheli, G. Pizzetti,
    A. Soffiantini.  Measurer W. Marinello.  0.40-m f/6 reflector + CMO.
203 GiaGa Observatory.  Observers S. Foglia, G. Galli.  Measurer G. Galli.
    0.36-m f/5.76 Schmidt-Cassegrain + CCD.
204 Schiaparelli Observatory.  Observers L. Buzzi, G. Galli.  0.84-m f/3.5
    reflector + CMO.
511 Haute Provence.  Observers K. Baillie, J. Desmars, W. Thuillot.  Measurers
    W. Thuillot, K. Baillie, S. Bouquillon, F. Taris, T. Carlucci, C. Barache,
    J. Desmars.  1.20-m f/6  reflector + CCD.
654 Table Mountain Observatory, Wrightwood-PHMC.  Observers N. Evans, P. Choi,
    N. Saini, C. Zhai, R. Trahan, M. Shao.  1.0-m Reflector + CCD.
958 Observatoire de Dax.  Observer P. Dupouy.  0.50-m f/4.5 Reflector + CMO.
C82 Osservatorio Astronomico Nastro Verde, Sorrento.  Observer N. Ruocco.
    0.35-m f/6.3  Schmidt-Cassegrain + CCD.
I93 St Pardon de Conques.  Observer F. Losse.  0.40-m f/3.7 reflector + CMO.
K51 Osservatorio del Celado, Castello Tesino.  Observer M. Campestrin.  0.80-m
    f/4 reflector + CCD.
K78 iota Scorpii Observatory, La Spezia.  Observers G. Scarfi, P. Boongerd.
    0.40-m f/6.1 reflector + CCD.
K88 GINOP-KHK, Piszkesteto.  Observer K. Sarneczky.  Measurers T. Maroti,
    K. Sarneczky.  0.60-m Schmidt + CCD.
L01 Visnjan Observatory, Tican.  Observers K. Korlevic, L. Poropat.  Measurer
    K. Korlevic.  1.0-m f/2.9 reflector + CCD.

Orbital elements:
2024 AD4                                                 Earth MOID = 0.0533 AU
Epoch 2023 Sept. 13.0 TT = JDT 2460200.5                Bell                    
M  11.27352              (2000.0)            P               Q                  
n   1.24596500     Peri.    8.77685     +0.52214236     +0.75735887             
a   0.8553269      Node   293.60727     -0.80616023     +0.28822688             
e   0.2179722      Incl.   25.33793     -0.27833978     +0.58594607             
P   0.79           H   24.83          G   0.15           U   6                  
Residuals in seconds of arc
240112 K88  0.3+  0.3-    240112 511  0.3+  0.5+    240113 204  0.4-  0.3-
240112 K88  0.0   0.4-    240112 511  0.2+  0.0     240113 I93  0.3-  0.2-
240112 K88  0.3-  0.5-    240112 511  0.3+  0.3+    240113 I93  0.4-  0.1+
240112 K88  0.4+  0.1+    240112 511  0.1+  0.1+    240113 204  0.4-  0.4-
240112 K88  0.1-  0.1+    240112 511  0.0   0.1+    240113 I93  0.2-  0.3-
240112 K88  0.1-  0.2+    240112 104  0.1+  0.3-    240113 K51  0.0   0.3+
240112 K78  0.4+  0.2+    240112 104  0.3-  0.2+    240113 K51  0.1+  0.1+
240112 K88  0.1-  0.2+    240112 104  0.3-  0.1+    240113 K51  0.1-  0.1+
240112 K88  0.1+  0.3+    240113 K88  0.9-  0.5-    240113 958  0.0   0.1+
240112 K88  0.5+  0.5+    240113 K88  0.5+  0.6-    240113 958  0.6-  0.4-
240112 K78  0.1+  0.2+    240113 654  0.1+  0.0     240113 958  0.9+  0.7-
240112 K78  0.1+  0.0     240113 654  0.0   0.1+    240113 K51  0.1-  0.2+
240112 L01  0.3+  0.0     240113 654  0.1+  0.0     240113 K51  0.3+  0.1+
240112 L01  0.1+  0.1-    240113 654  0.0   0.0     240113 C82  0.5+  0.2-
240112 L01  0.1+  0.0     240113 106  0.1+  0.3+    240113 C82  0.3+  0.5-
240112 L01  0.2-  0.3+    240113 106  0.1+  0.1-    240113 130  0.2-  0.4+
240112 L01  0.1-  0.1+    240113 106  0.1+  0.1+    240113 130  0.1+  0.5+
240112 511  0.5+  1.4+    240113 204  0.1-  0.4-    240114 203  0.3-  0.3-
240112 511  0.4+  0.4-    240113 106  0.1-  0.2-    240114 203  0.4-  0.1+

Ephemeris:
2024 AD4                 a,e,i = 0.86, 0.22, 25                  q = 0.6689
Date    TT    R. A. (2000) Decl.     Delta      r    Elong.  Phase     V
2023 12 15    14 30 05.2 +52 16 56   0.2217  0.9891    84.8    82.3    24.4
...
2023 12 30    13 22 09.2 +58 39 13   0.1235  1.0196   103.6    69.6    22.8
...
2024 01 07    10 37 39.6 +61 39 22   0.07519 1.0306   127.3    49.4    21.1
...
2024 01 13    07 13 17.0 +40 44 22   0.05598 1.0364   160.4    18.6    19.6
2024 01 14    06 50 13.7 +34 26 30   0.05588 1.0372   163.2    15.9    19.5
2024 01 15    06 30 48.0 +28 00 15   0.05684 1.0379   162.2    16.8    19.6
...
2024 01 21    05 23 37.0 -01 50 31   0.07975 1.0409   133.9    43.0    21.1
...
2024 01 29    04 50 50.5 -18 10 11   0.1302  1.0415   112.4    60.9    22.7
...
2024 02 13    04 34 22.3 -27 30 02   0.2322  1.0325    94.7    72.3    24.3

M. P. C. Staff               (C) Copyright 2024 MPC           M.P.E.C. 2024-A159





More information about the Iaude mailing list